Volver al catálogo

HULIANWANG DIGUI-137

ActivoComunicacionesLEO
NORAD 67435·PAYLOAD·🇨🇳 China

Lanzado Jan 13, 2026 desde Wenchang Space Launch Site

Loading…

Próximos Pases (próximas 24 horas)

TLE

ActualizadoSource: Space-Track

Época: Sep 14, 2026, 14:51 UTC

1 67435U 26007A   26257.61931458 -.00000086  00000-0  81359-4 0  9994
2 67435  50.0069 125.1251 0000434 359.9414   0.1458 13.29330366 32683

Sigue HULIANWANG DIGUI-137 en tiempo real con AllMySat

Download on the App Store